| time (UTC) | temp F | wind direction | speed MPH | gust MPH | rain 1hr in | rain 24hr in | rain mn in | humidity % | barometer mb |
| 20260504021016 | 72 | 207 | 2.0 | 6.0 | 0.00 | 0.00 | 0.00 | 45 | 1016.0 |
| 20260504020017 | 73 | 223 | 3.0 | 5.0 | 0.00 | 0.00 | 0.00 | 44 | 1016.0 |
| 20260504015037 | 73 | 223 | 3.0 | 5.0 | 0.00 | 0.00 | 0.00 | 42 | 1015.9 |
| 20260504014037 | 74 | 221 | 3.0 | 6.0 | 0.00 | 0.00 | 0.00 | 41 | 1015.8 |
| 20260504013017 | 74 | 222 | 3.0 | 7.0 | 0.00 | 0.00 | 0.00 | 40 | 1015.6 |
| 20260504012017 | 75 | 173 | 4.0 | 7.0 | 0.00 | 0.00 | 0.00 | 40 | 1015.6 |
| 20260504011018 | 75 | 221 | 3.0 | 8.0 | 0.00 | 0.00 | 0.00 | 39 | 1015.6 |
| 20260504010038 | 76 | 219 | 4.0 | 8.0 | 0.00 | 0.00 | 0.00 | 38 | 1015.6 |
| 20260504005016 | 76 | 219 | 4.0 | 11.0 | 0.00 | 0.00 | 0.00 | 37 | 1015.6 |
| 20260504004036 | 77 | 220 | 2.0 | 6.0 | 0.00 | 0.00 | 0.00 | 37 | 1015.6 |
| 20260504003015 | 78 | 223 | 3.0 | 8.0 | 0.00 | 0.00 | 0.00 | 35 | 1015.6 |
| 20260504002016 | 79 | 221 | 3.0 | 8.0 | 0.00 | 0.00 | 0.00 | 34 | 1015.7 |
| 20260504001017 | 79 | 213 | 3.0 | 7.0 | 0.00 | 0.00 | 0.00 | 33 | 1015.8 |
| 20260504000016 | 80 | 222 | 4.0 | 8.0 | 0.00 | 0.00 | 0.00 | 33 | 1015.7 |
| 20260503235036 | 80 | 218 | 3.0 | 8.0 | 0.00 | 0.00 | 0.00 | 32 | 1015.7 |
| 20260503234016 | 81 | 220 | 4.0 | 7.0 | 0.00 | 0.00 | 0.00 | 32 | 1015.8 |
| 20260503233016 | 81 | 216 | 5.0 | 9.0 | 0.00 | 0.00 | 0.00 | 31 | 1015.9 |
| 20260503232016 | 81 | 209 | 5.0 | 13.0 | 0.00 | 0.00 | 0.00 | 30 | 1016.0 |
| 20260503231016 | 81 | 208 | 4.0 | 9.0 | 0.00 | 0.00 | 0.00 | 30 | 1016.0 |
| 20260503230017 | 81 | 196 | 4.0 | 9.0 | 0.00 | 0.00 | 0.00 | 31 | 1016.1 |
| 20260503225016 | 82 | 218 | 5.0 | 12.0 | 0.00 | 0.00 | 0.00 | 30 | 1016.2 |
| 20260503224017 | 82 | 213 | 6.0 | 12.0 | 0.00 | 0.00 | 0.00 | 30 | 1016.1 |
| 20260503223017 | 82 | 223 | 4.0 | 11.0 | 0.00 | 0.00 | 0.00 | 30 | 1016.1 |
| 20260503222017 | 82 | 211 | 5.0 | 16.0 | 0.00 | 0.00 | 0.00 | 29 | 1016.3 |
| 20260503221017 | 82 | 208 | 3.0 | 9.0 | 0.00 | 0.00 | 0.00 | 29 | 1016.4 |
| 20260503220018 | 82 | 233 | 5.0 | 11.0 | 0.00 | 0.00 | 0.00 | 29 | 1016.6 |
| 20260503215018 | 82 | 227 | 5.0 | 13.0 | 0.00 | 0.00 | 0.00 | 29 | 1016.7 |
| 20260503214018 | 82 | 218 | 3.0 | 7.0 | 0.00 | 0.00 | 0.00 | 30 | 1016.8 |
| 20260503213015 | 82 | 223 | 4.0 | 8.0 | 0.00 | 0.00 | 0.00 | 29 | 1016.9 |
| 20260503212015 | 82 | 232 | 5.0 | 11.0 | 0.00 | 0.00 | 0.00 | 29 | 1017.1 |
| 20260503211035 | 82 | 224 | 4.0 | 9.0 | 0.00 | 0.00 | 0.00 | 29 | 1017.2 |
| 20260503210016 | 82 | 221 | 5.0 | 8.0 | 0.00 | 0.00 | 0.00 | 29 | 1017.5 |
| 20260503205016 | 83 | 219 | 4.0 | 8.0 | 0.00 | 0.00 | 0.00 | 29 | 1017.6 |
| 20260503204016 | 82 | 220 | 5.0 | 9.0 | 0.00 | 0.00 | 0.00 | 30 | 1017.8 |
| 20260503203016 | 82 | 220 | 5.0 | 9.0 | 0.00 | 0.00 | 0.00 | 30 | 1018.0 |
| 20260503202017 | 82 | 220 | 6.0 | 11.0 | 0.00 | 0.00 | 0.00 | 29 | 1018.2 |
| 20260503201017 | 82 | 223 | 4.0 | 16.0 | 0.00 | 0.00 | 0.00 | 29 | 1018.3 |
| 20260503200017 | 82 | 219 | 6.0 | 10.0 | 0.00 | 0.00 | 0.00 | 29 | 1018.3 |
| 20260503195037 | 82 | 223 | 6.0 | 9.0 | 0.00 | 0.00 | 0.00 | 29 | 1018.6 |
| 20260503194017 | 82 | 222 | 6.0 | 11.0 | 0.00 | 0.00 | 0.00 | 29 | 1018.7 |
| 20260503193017 | 82 | 221 | 3.0 | 6.0 | 0.00 | 0.00 | 0.00 | 29 | 1018.8 |
| 20260503192018 | 82 | 222 | 5.0 | 8.0 | 0.00 | 0.00 | 0.00 | 30 | 1019.1 |
| 20260503191018 | 82 | 222 | 5.0 | 8.0 | 0.00 | 0.00 | 0.00 | 31 | 1019.3 |
| 20260503190018 | 82 | 226 | 4.0 | 8.0 | 0.00 | 0.00 | 0.00 | 32 | 1019.4 |
| 20260503185018 | 81 | 219 | 6.0 | 10.0 | 0.00 | 0.00 | 0.00 | 32 | 1019.5 |
| 20260503184018 | 81 | 221 | 5.0 | 9.0 | 0.00 | 0.00 | 0.00 | 33 | 1019.6 |
| 20260503183015 | 80 | 221 | 6.0 | 10.0 | 0.00 | 0.00 | 0.00 | 32 | 1019.7 |
| 20260503182015 | 80 | 223 | 6.0 | 10.0 | 0.00 | 0.00 | 0.00 | 35 | 1020.0 |
| 20260503181136 | 80 | 224 | 5.0 | 9.0 | 0.00 | 0.00 | 0.00 | 34 | 1020.2 |
| 20260503180016 | 79 | 219 | 5.0 | 10.0 | 0.00 | 0.00 | 0.00 | 35 | 1020.3 |
| 20260503175016 | 79 | 219 | 6.0 | 12.0 | 0.00 | 0.00 | 0.00 | 37 | 1020.6 |
| 20260503174016 | 79 | 224 | 7.0 | 15.0 | 0.00 | 0.00 | 0.00 | 38 | 1020.8 |
| 20260503173016 | 79 | 223 | 4.0 | 8.0 | 0.00 | 0.00 | 0.00 | 40 | 1020.9 |
| 20260503172017 | 78 | 223 | 4.0 | 9.0 | 0.00 | 0.00 | 0.00 | 42 | 1021.0 |
| 20260503171037 | 77 | 221 | 6.0 | 9.0 | 0.00 | 0.00 | 0.00 | 42 | 1021.3 |
| 20260503131018 | 62 | 234 | 1.0 | 3.0 | 0.00 | 0.00 | 0.00 | 64 | 1021.4 |
| 20260503081016 | 61 | 239 | 1.0 | 5.0 | 0.00 | 0.00 | 0.00 | 63 | 1020.1 |
| 20260503072016 | 61 | 234 | 1.0 | 3.0 | 0.00 | 0.00 | 0.00 | 62 | 1020.5 |
| 20260503071016 | 62 | 234 | 1.0 | 3.0 | 0.00 | 0.00 | 0.00 | 61 | 1020.6 |
| 20260503055058 | 61 | 231 | 1.0 | 3.0 | 0.00 | 0.00 | 0.00 | 62 | 1020.5 |
| 20260503054018 | 62 | 249 | 0.0 | 3.0 | 0.00 | 0.00 | 0.00 | 62 | 1020.5 |
| 20260503053038 | 62 | 226 | 1.0 | 5.0 | 0.00 | 0.00 | 0.00 | 61 | 1020.4 |
| 20260503052018 | 61 | 227 | 1.0 | 3.0 | 0.00 | 0.00 | 0.00 | 62 | 1020.3 |
| 20260503051017 | 62 | 76 | 0.0 | 1.0 | 0.00 | 0.00 | 0.00 | 63 | 1020.3 |
| 20260503050015 | 63 | 129 | 0.0 | 2.0 | 0.00 | 0.00 | 0.00 | 59 | 1020.2 |
| 20260503045016 | 63 | 238 | 0.0 | 3.0 | 0.00 | 0.00 | 0.00 | 58 | 1020.1 |
| 20260503044036 | 63 | 223 | 1.0 | 4.0 | 0.00 | 0.00 | 0.00 | 57 | 1020.1 |
| 20260503043036 | 63 | 210 | 1.0 | 4.0 | 0.00 | 0.00 | 0.00 | 57 | 1020.2 |
| 20260503042016 | 63 | 245 | 1.0 | 4.0 | 0.00 | 0.00 | 0.00 | 58 | 1020.2 |
| 20260503041036 | 63 | 193 | 1.0 | 3.0 | 0.00 | 0.00 | 0.00 | 59 | 1020.2 |
| 20260503040036 | 63 | 243 | 0.0 | 3.0 | 0.00 | 0.00 | 0.00 | 60 | 1020.2 |
| 20260503035016 | 62 | 187 | 0.0 | 3.0 | 0.00 | 0.00 | 0.00 | 61 | 1020.2 |
| 20260503034037 | 63 | 95 | 0.0 | 3.0 | 0.00 | 0.00 | 0.00 | 61 | 1020.3 |
| 20260503033017 | 63 | 1 | 0.0 | 3.0 | 0.00 | 0.00 | 0.00 | 61 | 1020.3 |
| 20260503032017 | 63 | 17 | 0.0 | 3.0 | 0.00 | 0.00 | 0.00 | 62 | 1020.2 |
| 20260503031017 | 63 | 95 | 0.0 | 3.0 | 0.00 | 0.00 | 0.00 | 62 | 1020.1 |
| 20260503030017 | 64 | 103 | 0.0 | 2.0 | 0.00 | 0.00 | 0.00 | 61 | 1020.0 |
| 20260503025017 | 65 | 47 | 0.0 | 1.0 | 0.00 | 0.00 | 0.00 | 59 | 1019.9 |
| 20260503024037 | 66 | 69 | 0.0 | 1.0 | 0.00 | 0.00 | 0.00 | 56 | 1019.8 |
| 20260503023017 | 66 | 20 | 0.0 | 1.0 | 0.00 | 0.00 | 0.00 | 54 | 1019.7 |
| 20260503022018 | 67 | 1 | 0.0 | 1.0 | 0.00 | 0.00 | 0.00 | 53 | 1019.6 |